• In Kazakhstan
  • List of Countries
  • For 7 days
  • Water Temperature
  • Satellite Maps
  • Weather Map
  • News
  • Weather Widgets
  • user-avatar
    Login

    Hourly Weather San Miguel de Tucumán

    Today, 17 January, Thursday

    Time Temperature Precipitation Wind Pressure Humidity
    00:00 +25°C° 0 mm 1 mps 716 mmHg 91%
    01:00 +25°C° 0 mm 1 mps 716 mmHg 90%
    02:00 +25°C° 0 mm 1 mps 716 mmHg 90%
    03:00 +25°C° 0 mm 1 mps 716 mmHg 90%
    04:00 +23°C° 0 mm 0 mps 716 mmHg 89%
    05:00 +23°C° 0 mm 0 mps 717 mmHg 89%
    06:00 +26°C° 0.2 mm 1 mps 717 mmHg 88%
    07:00 +27°C° 0.2 mm 1 mps 718 mmHg 86%
    08:00 +28°C° 0.2 mm 1 mps 718 mmHg 85%
    09:00 +28°C° 1.9 mm 2 mps 719 mmHg 83%
    10:00 +29°C° 1.9 mm 3 mps 719 mmHg 81%
    11:00 +30°C° 1.9 mm 5 mps 719 mmHg 80%
    12:00 +29°C° 1.5 mm 5 mps 719 mmHg 83%
    13:00 +27°C° 1.5 mm 5 mps 719 mmHg 85%
    14:00 +26°C° 1.5 mm 5 mps 719 mmHg 88%
    15:00 +25°C° 0.2 mm 4 mps 720 mmHg 89%
    16:00 +23°C° 0.2 mm 4 mps 720 mmHg 90%
    17:00 +22°C° 0.2 mm 3 mps 720 mmHg 91%
    18:00 +21°C° 0.2 mm 3 mps 721 mmHg 91%
    19:00 +20°C° 0.2 mm 3 mps 722 mmHg 92%
    20:00 +20°C° 0.2 mm 3 mps 722 mmHg 92%
    21:00 +20°C° 0.3 mm 3 mps 723 mmHg 92%
    22:00 +19°C° 0.3 mm 2 mps 724 mmHg 93%
    23:00 +19°C° 0.3 mm 2 mps 724 mmHg 93%

    Tomorrow, 18 January, Friday

    Time Temperature Precipitation Wind Pressure Humidity
    00:00 +19°C° 0 mm 2 mps 724 mmHg 93%
    01:00 +20°C° 0 mm 1 mps 724 mmHg 93%
    02:00 +19°C° 0 mm 1 mps 723 mmHg 92%
    03:00 +19°C° 0.1 mm 1 mps 723 mmHg 92%
    04:00 +19°C° 0.1 mm 1 mps 724 mmHg 92%
    05:00 +19°C° 0.1 mm 1 mps 724 mmHg 91%
    06:00 +19°C° 0 mm 1 mps 724 mmHg 90%
    07:00 +19°C° 0 mm 1 mps 725 mmHg 89%
    08:00 +19°C° 0 mm 1 mps 725 mmHg 88%
    09:00 +20°C° 0 mm 1 mps 725 mmHg 81%
    10:00 +22°C° 0 mm 1 mps 725 mmHg 74%
    11:00 +23°C° 0 mm 1 mps 726 mmHg 68%
    12:00 +24°C° 0 mm 1 mps 725 mmHg 66%
    13:00 +25°C° 0 mm 1 mps 724 mmHg 64%
    14:00 +25°C° 0 mm 1 mps 723 mmHg 62%
    15:00 +25°C° 0 mm 1 mps 723 mmHg 63%
    16:00 +25°C° 0 mm 1 mps 722 mmHg 64%
    17:00 +25°C° 0 mm 1 mps 722 mmHg 65%
    18:00 +24°C° 0 mm 1 mps 722 mmHg 71%
    19:00 +22°C° 0 mm 1 mps 722 mmHg 77%
    20:00 +19°C° 0 mm 0 mps 723 mmHg 83%
    21:00 +19°C° 0 mm 0 mps 723 mmHg 84%
    22:00 +18°C° 0 mm 0 mps 724 mmHg 85%
    23:00 +18°C° 0 mm 0 mps 724 mmHg 86%

    Day after tomorrow, 19 January, Saturday

    Time Temperature Precipitation Wind Pressure Humidity
    00:00 +18°C° 0 mm 0 mps 724 mmHg 88%
    01:00 +20°C° 0 mm 1 mps 724 mmHg 90%
    02:00 +19°C° 0 mm 1 mps 723 mmHg 91%
    03:00 +19°C° 0 mm 1 mps 723 mmHg 92%
    04:00 +19°C° 0 mm 1 mps 723 mmHg 92%
    05:00 +19°C° 0 mm 1 mps 723 mmHg 92%
    06:00 +20°C° 0 mm 1 mps 724 mmHg 89%
    07:00 +20°C° 0 mm 1 mps 724 mmHg 86%
    08:00 +21°C° 0 mm 1 mps 724 mmHg 83%
    09:00 +22°C° 0 mm 1 mps 724 mmHg 76%
    10:00 +24°C° 0 mm 2 mps 724 mmHg 70%
    11:00 +26°C° 0 mm 2 mps 724 mmHg 63%
    12:00 +26°C° 0 mm 2 mps 723 mmHg 63%
    13:00 +27°C° 0 mm 2 mps 723 mmHg 62%
    14:00 +27°C° 0 mm 2 mps 722 mmHg 61%
    15:00 +27°C° 0 mm 2 mps 722 mmHg 63%
    16:00 +27°C° 0 mm 2 mps 721 mmHg 65%
    17:00 +27°C° 0 mm 2 mps 720 mmHg 66%
    18:00 +26°C° 0 mm 1 mps 720 mmHg 71%
    19:00 +24°C° 0 mm 1 mps 721 mmHg 76%
    20:00 +23°C° 0 mm 1 mps 721 mmHg 80%
    21:00 +23°C° 0 mm 1 mps 721 mmHg 80%
    22:00 +23°C° 0 mm 1 mps 722 mmHg 80%
    23:00 +22°C° 0 mm 1 mps 723 mmHg 80%

    20 January, Sunday

    Time Temperature Precipitation Wind Pressure Humidity
    00:00 +22°C° 0 mm 1 mps 722 mmHg 84%
    01:00 +21°C° 0 mm 1 mps 721 mmHg 87%
    02:00 +20°C° 0 mm 1 mps 721 mmHg 91%
    03:00 +20°C° 0 mm 1 mps 720 mmHg 91%
    04:00 +20°C° 0 mm 1 mps 720 mmHg 91%
    05:00 +20°C° 0 mm 1 mps 720 mmHg 90%
    06:00 +21°C° 0 mm 1 mps 720 mmHg 86%
    07:00 +22°C° 0 mm 1 mps 720 mmHg 81%
    08:00 +24°C° 0 mm 2 mps 720 mmHg 76%
    09:00 +26°C° 0 mm 2 mps 720 mmHg 70%
    10:00 +28°C° 0 mm 2 mps 720 mmHg 65%
    11:00 +29°C° 0 mm 3 mps 720 mmHg 60%
    12:00 +30°C° 0 mm 3 mps 719 mmHg 59%
    13:00 +30°C° 0 mm 3 mps 718 mmHg 58%
    14:00 +31°C° 0 mm 3 mps 717 mmHg 57%
    15:00 +31°C° 0 mm 3 mps 717 mmHg 59%
    16:00 +30°C° 0 mm 2 mps 716 mmHg 61%
    17:00 +30°C° 0 mm 2 mps 715 mmHg 63%
    18:00 +29°C° 0 mm 2 mps 716 mmHg 69%
    19:00 +27°C° 0 mm 1 mps 716 mmHg 75%
    20:00 +24°C° 0 mm 0 mps 717 mmHg 81%
    21:00 +25°C° 0 mm 1 mps 717 mmHg 82%
    22:00 +25°C° 0 mm 1 mps 718 mmHg 83%
    23:00 +25°C° 0 mm 1 mps 718 mmHg 84%

    21 January, Monday

    Time Temperature Precipitation Wind Pressure Humidity
    00:00 +24°C° 0 mm 1 mps 718 mmHg 86%
    01:00 +24°C° 0 mm 1 mps 717 mmHg 88%
    02:00 +23°C° 0 mm 1 mps 717 mmHg 90%
    03:00 +21°C° 0 mm 0 mps 717 mmHg 92%
    04:00 +20°C° 0 mm 0 mps 717 mmHg 93%
    05:00 +20°C° 0 mm 0 mps 717 mmHg 95%
    06:00 +21°C° 0 mm 0 mps 717 mmHg 90%
    07:00 +22°C° 0 mm 0 mps 718 mmHg 85%
    08:00 +25°C° 0 mm 1 mps 719 mmHg 80%
    09:00 +27°C° 0 mm 1 mps 719 mmHg 73%
    10:00 +29°C° 0 mm 1 mps 719 mmHg 67%
    11:00 +31°C° 0 mm 2 mps 719 mmHg 60%
    12:00 +32°C° 0 mm 2 mps 718 mmHg 58%
    13:00 +34°C° 0 mm 2 mps 718 mmHg 56%
    14:00 +34°C° 0 mm 2 mps 717 mmHg 54%
    15:00 +34°C° 0 mm 2 mps 717 mmHg 56%
    16:00 +34°C° 0 mm 2 mps 716 mmHg 57%
    17:00 +32°C° 0 mm 1 mps 716 mmHg 59%
    18:00 +31°C° 0 mm 1 mps 716 mmHg 64%
    19:00 +29°C° 0 mm 1 mps 717 mmHg 68%
    20:00 +28°C° 0 mm 1 mps 717 mmHg 73%
    21:00 +27°C° 0 mm 1 mps 717 mmHg 74%
    22:00 +27°C° 0 mm 1 mps 718 mmHg 74%
    23:00 +27°C° 0 mm 2 mps 718 mmHg 75%

    22 January, Tuesday

    Time Temperature Precipitation Wind Pressure Humidity
    00:00 +26°C° 0 mm 1 mps 718 mmHg 75%
    01:00 +26°C° 0 mm 1 mps 717 mmHg 76%
    02:00 +26°C° 0 mm 1 mps 717 mmHg 77%
    03:00 +25°C° 0 mm 1 mps 716 mmHg 78%
    04:00 +23°C° 0 mm 0 mps 716 mmHg 80%
    05:00 +22°C° 0 mm 0 mps 716 mmHg 81%
    06:00 +24°C° 0 mm 0 mps 716 mmHg 77%
    07:00 +27°C° 0 mm 1 mps 716 mmHg 73%
    08:00 +28°C° 0 mm 1 mps 717 mmHg 69%
    09:00 +30°C° 0 mm 1 mps 717 mmHg 62%
    10:00 +33°C° 0 mm 1 mps 716 mmHg 56%
    11:00 +36°C° 0 mm 2 mps 716 mmHg 50%
    12:00 +37°C° 0 mm 2 mps 716 mmHg 47%
    13:00 +38°C° 0 mm 2 mps 715 mmHg 44%
    14:00 +39°C° 0 mm 3 mps 714 mmHg 41%
    15:00 +38°C° 0 mm 2 mps 714 mmHg 44%
    16:00 +38°C° 0 mm 2 mps 713 mmHg 46%
    17:00 +37°C° 0 mm 1 mps 713 mmHg 49%
    18:00 +35°C° 0 mm 1 mps 713 mmHg 56%
    19:00 +33°C° 0 mm 1 mps 714 mmHg 62%
    20:00 +31°C° 0 mm 1 mps 714 mmHg 69%
    21:00 +31°C° 0 mm 1 mps 715 mmHg 68%
    22:00 +30°C° 0 mm 1 mps 715 mmHg 68%
    23:00 +30°C° 0 mm 1 mps 716 mmHg 67%
    Show more